Terug naar catalogus

SL-8 DEB

ActiefUNKNOWN
NORAD 1549·DEBRIS·🇷🇺 Russia

Gelanceerd Mar 15, 1965 vanaf Baikonur Cosmodrome

Loading…

Volgende Passages (komende 24 uur)

TLE

VersSource: Space-Track

Epoch: Sep 14, 2026, 09:22 UTC

1 01549U 65020CV  26257.39096884  .00000136  00000-0  31487-3 0  9997
2 01549  56.1692  32.9417 0836512 227.5194 125.2053 12.64504242826229

Volg SL-8 DEB in realtime met AllMySat

Download on the App Store